Time,TemperatureF,DewpointF,PressureIn,WindDirection,WindDirectionDegrees,WindSpeedMPH,WindSpeedGustMPH,Humidity,HourlyPrecipIn,Conditions,Clouds,dailyrainin,SoftwareType,DateUTC
2013-05-19 00:01:00,67.8,67.8,28.87,SSE,160,3.0,4.0,100,0.00,,FEW060,0.00,VWS V14.01,2013-05-19 05:01:00,
2013-05-19 00:06:00,67.6,67.6,28.87,SSE,161,2.0,4.0,100,0.00,,FEW060,0.00,VWS V14.01,2013-05-19 05:06:00,
2013-05-19 00:11:00,67.4,67.4,28.88,SSE,160,2.0,3.0,100,0.00,,FEW060,0.00,VWS V14.01,2013-05-19 05:11:00,
2013-05-19 00:16:00,67.3,67.3,28.88,SSE,156,0.0,3.0,100,0.00,,FEW060,0.00,VWS V14.01,2013-05-19 05:16:00,
2013-05-19 00:21:00,67.1,67.1,28.87,SSE,164,4.0,4.0,100,0.00,,FEW060,0.00,VWS V14.01,2013-05-19 05:21:00,
2013-05-19 00:26:00,66.9,66.9,28.87,SSE,153,2.0,5.0,100,0.00,,FEW060,0.00,VWS V14.01,2013-05-19 05:26:00,
2013-05-19 00:31:00,66.7,66.7,28.87,SSE,165,2.0,4.0,100,0.00,,FEW060,0.00,VWS V14.01,2013-05-19 05:31:00,
2013-05-19 00:36:00,66.5,66.5,28.87,SSE,153,0.0,7.0,100,0.00,,CLR,0.00,VWS V14.01,2013-05-19 05:36:00,
2013-05-19 00:41:00,66.2,66.2,28.87,South,176,1.0,7.0,100,0.00,,CLR,0.00,VWS V14.01,2013-05-19 05:41:00,
2013-05-19 00:46:00,66.0,66.0,28.87,South,191,2.0,10.0,100,0.00,,CLR,0.00,VWS V14.01,2013-05-19 05:46:00,
2013-05-19 00:51:00,65.9,65.9,28.87,SSE,164,2.0,4.0,100,0.00,,CLR,0.00,VWS V14.01,2013-05-19 05:51:00,
2013-05-19 00:56:00,65.8,65.8,28.87,SSE,166,2.0,7.0,100,0.00,,CLR,0.00,VWS V14.01,2013-05-19 05:56:00,
2013-05-19 01:01:00,65.7,65.7,28.87,SE,138,5.0,7.0,100,0.00,,CLR,0.00,VWS V14.01,2013-05-19 06:01:00,
2013-05-19 01:06:00,65.6,65.6,28.86,South,186,2.0,7.0,100,0.00,,CLR,0.00,VWS V14.01,2013-05-19 06:06:00,
2013-05-19 01:11:00,65.5,65.5,28.87,SSW,200,0.0,3.0,100,0.00,,CLR,0.00,VWS V14.01,2013-05-19 06:11:00,
2013-05-19 01:16:00,65.4,65.4,28.88,SSE,156,2.0,6.0,100,0.00,,CLR,0.00,VWS V14.01,2013-05-19 06:16:00,
2013-05-19 01:21:00,65.3,65.3,28.86,SSE,150,2.0,10.0,100,0.00,,CLR,0.00,VWS V14.01,2013-05-19 06:21:00,
2013-05-19 01:26:00,65.3,65.3,28.86,SSE,162,3.0,12.0,100,0.00,,CLR,0.00,VWS V14.01,2013-05-19 06:26:00,
2013-05-19 01:31:00,65.2,65.2,28.85,ESE,114,0.0,8.0,100,0.00,,CLR,0.00,VWS V14.01,2013-05-19 06:31:00,
2013-05-19 01:36:00,65.3,65.3,28.86,WSW,249,2.0,8.0,100,0.00,,CLR,0.00,VWS V14.01,2013-05-19 06:36:00,
2013-05-19 01:41:00,65.2,65.2,28.86,SE,141,0.0,3.0,100,0.00,,CLR,0.00,VWS V14.01,2013-05-19 06:41:00,
2013-05-19 01:46:00,65.2,-3.7,28.86,SSW,210,0.0,8.0,6,0.00,,CLR,0.00,VWS V14.01,2013-05-19 06:46:00,
2013-05-19 01:51:00,65.0,65.0,28.86,SSE,155,0.0,2.0,100,0.00,,CLR,0.00,VWS V14.01,2013-05-19 06:51:00,
2013-05-19 01:56:00,64.9,64.9,28.86,SSE,148,1.0,6.0,100,0.00,,CLR,0.00,VWS V14.01,2013-05-19 06:56:00,
2013-05-19 02:01:00,64.8,54.4,28.86,SSE,167,8.0,8.0,69,0.00,,CLR,0.00,VWS V14.01,2013-05-19 07:01:00,
2013-05-19 02:06:00,64.7,64.7,28.86,SSE,155,3.0,9.0,100,0.00,,CLR,0.00,VWS V14.01,2013-05-19 07:06:00,
2013-05-19 02:11:00,64.6,64.6,28.85,South,175,6.0,10.0,100,0.00,,CLR,0.00,VWS V14.01,2013-05-19 07:11:00,
2013-05-19 02:16:00,64.6,64.6,28.85,SSE,150,3.0,11.0,100,0.00,,CLR,0.00,VWS V14.01,2013-05-19 07:16:00,
2013-05-19 02:21:00,64.6,64.6,28.86,SSE,161,4.0,7.0,100,0.00,,CLR,0.00,VWS V14.01,2013-05-19 07:21:00,
2013-05-19 02:26:00,64.6,64.6,28.85,South,169,4.0,11.0,100,0.00,,CLR,0.00,VWS V14.01,2013-05-19 07:26:00,
2013-05-19 02:31:00,64.6,64.6,28.86,SE,140,4.0,6.0,100,0.00,,CLR,0.00,VWS V14.01,2013-05-19 07:31:00,
2013-05-19 02:36:00,64.6,64.6,28.85,SSE,168,2.0,9.0,100,0.00,,CLR,0.00,VWS V14.01,2013-05-19 07:36:00,
2013-05-19 02:41:00,64.6,64.6,28.85,SE,140,5.0,10.0,100,0.00,,CLR,0.00,VWS V14.01,2013-05-19 07:41:00,
2013-05-19 02:46:00,64.6,64.6,28.85,SSE,168,2.0,10.0,100,0.00,,CLR,0.00,VWS V14.01,2013-05-19 07:46:00,
2013-05-19 02:51:00,64.6,64.6,28.85,SSE,166,7.0,8.0,100,0.00,,CLR,0.00,VWS V14.01,2013-05-19 07:51:00,
2013-05-19 02:56:00,64.5,64.5,28.86,SE,132,2.0,10.0,100,0.00,,CLR,0.00,VWS V14.01,2013-05-19 07:56:00,
2013-05-19 03:01:00,64.6,64.6,28.86,SSE,150,2.0,6.0,100,0.00,,CLR,0.00,VWS V14.01,2013-05-19 08:01:00,
2013-05-19 03:06:00,64.6,0.0,28.86,SSE,154,0.0,11.0,100,0.00,,CLR,0.00,VWS V14.01,2013-05-19 08:06:00,
2013-05-19 03:11:00,64.6,64.6,28.87,SSE,163,0.0,4.0,100,0.00,,CLR,0.00,VWS V14.01,2013-05-19 08:11:00,
2013-05-19 03:16:00,64.6,64.6,28.87,SE,141,5.0,12.0,100,0.00,,CLR,0.00,VWS V14.01,2013-05-19 08:16:00,
2013-05-19 03:21:00,64.6,64.6,28.87,South,184,8.0,9.0,100,0.00,,CLR,0.00,VWS V14.01,2013-05-19 08:21:00,
2013-05-19 03:26:00,64.6,45.6,28.87,SSE,150,6.0,10.0,50,0.00,,CLR,0.00,VWS V14.01,2013-05-19 08:26:00,
2013-05-19 03:31:00,64.6,64.6,28.87,SSE,159,6.0,7.0,100,0.00,,CLR,0.00,VWS V14.01,2013-05-19 08:31:00,
2013-05-19 03:36:00,64.6,64.6,28.87,South,175,5.0,10.0,100,0.00,,CLR,0.00,VWS V14.01,2013-05-19 08:36:00,
2013-05-19 03:41:00,64.5,64.5,28.87,South,184,7.0,9.0,100,0.00,,CLR,0.00,VWS V14.01,2013-05-19 08:41:00,
2013-05-19 03:46:00,64.5,18.8,28.86,South,183,1.0,9.0,17,0.00,,CLR,0.00,VWS V14.01,2013-05-19 08:46:00,
2013-05-19 03:51:00,64.4,45.4,28.87,SE,145,6.0,9.0,50,0.00,,CLR,0.00,VWS V14.01,2013-05-19 08:51:00,
2013-05-19 03:56:00,64.4,64.4,28.87,SE,143,0.0,9.0,100,0.00,,CLR,0.00,VWS V14.01,2013-05-19 08:56:00,
2013-05-19 04:01:00,64.3,64.3,28.87,South,181,6.0,6.0,100,0.00,,CLR,0.00,VWS V14.01,2013-05-19 09:01:00,
2013-05-19 04:06:00,64.2,28.6,28.87,SSE,162,3.0,10.0,26,0.00,,CLR,0.00,VWS V14.01,2013-05-19 09:06:00,
2013-05-19 04:11:00,64.2,64.2,28.88,SSE,168,10.0,10.0,100,0.00,,CLR,0.00,VWS V14.01,2013-05-19 09:11:00,
2013-05-19 04:16:00,64.1,64.1,28.88,South,185,2.0,10.0,100,0.00,,CLR,0.00,VWS V14.01,2013-05-19 09:16:00,
2013-05-19 04:21:00,64.0,64.0,28.88,SSE,166,0.0,3.0,100,0.00,,CLR,0.00,VWS V14.01,2013-05-19 09:21:00,
2013-05-19 04:26:00,63.9,63.9,28.87,SSE,159,3.0,9.0,100,0.00,,CLR,0.00,VWS V14.01,2013-05-19 09:26:00,
2013-05-19 04:31:00,63.8,63.8,28.87,South,189,6.0,6.0,100,0.00,,CLR,0.00,VWS V14.01,2013-05-19 09:31:00,
2013-05-19 04:36:00,63.7,63.7,28.87,SE,145,3.0,9.0,100,0.00,,CLR,0.00,VWS V14.01,2013-05-19 09:36:00,
2013-05-19 04:41:00,63.6,63.6,28.86,SSE,168,5.0,5.0,100,0.00,,CLR,0.00,VWS V14.01,2013-05-19 09:41:00,
2013-05-19 04:46:00,63.6,63.6,28.86,South,171,1.0,9.0,100,0.00,,CLR,0.00,VWS V14.01,2013-05-19 09:46:00,
2013-05-19 04:51:00,63.5,63.5,28.85,SE,130,5.0,8.0,100,0.00,,CLR,0.00,VWS V14.01,2013-05-19 09:51:00,
2013-05-19 04:56:00,63.4,63.4,28.86,South,175,4.0,8.0,100,0.00,,CLR,0.00,VWS V14.01,2013-05-19 09:56:00,
2013-05-19 05:01:00,63.4,63.4,28.86,SSE,158,4.0,8.0,100,0.00,,CLR,0.00,VWS V14.01,2013-05-19 10:01:00,
2013-05-19 05:06:00,63.3,63.3,28.86,South,182,5.0,8.0,100,0.00,,CLR,0.00,VWS V14.01,2013-05-19 10:06:00,
2013-05-19 05:11:00,63.3,63.3,28.86,South,175,2.0,3.0,100,0.00,,CLR,0.00,VWS V14.01,2013-05-19 10:11:00,
2013-05-19 05:16:00,63.2,63.2,28.87,South,187,4.0,7.0,100,0.00,,CLR,0.00,VWS V14.01,2013-05-19 10:16:00,
2013-05-19 05:21:00,63.1,63.1,28.87,South,174,3.0,4.0,100,0.00,,CLR,0.00,VWS V14.01,2013-05-19 10:21:00,
2013-05-19 05:26:00,63.0,42.5,28.87,South,185,0.0,6.0,47,0.00,,CLR,0.00,VWS V14.01,2013-05-19 10:26:00,
2013-05-19 05:31:00,62.9,62.9,28.87,South,187,2.0,5.0,100,0.00,,CLR,0.00,VWS V14.01,2013-05-19 10:31:00,
2013-05-19 05:36:00,63.0,63.0,28.87,SSE,160,3.0,9.0,100,0.00,,,0.00,VWS V14.01,2013-05-19 10:36:00,
2013-05-19 05:41:00,62.9,62.9,28.87,SE,143,3.0,6.0,100,0.00,,,0.00,VWS V14.01,2013-05-19 10:41:00,
2013-05-19 05:46:00,62.9,62.9,28.87,South,174,4.0,8.0,100,0.00,,,0.00,VWS V14.01,2013-05-19 10:46:00,
2013-05-19 05:51:00,62.9,62.9,28.88,South,169,3.0,4.0,100,0.00,,,0.00,VWS V14.01,2013-05-19 10:51:00,
2013-05-19 05:55:00,63.0,63.0,28.88,SE,142,4.0,8.0,100,0.00,,,0.00,VWS V14.01,2013-05-19 10:55:00,
2013-05-19 06:00:00,63.1,63.1,28.88,SSE,150,3.0,6.0,100,0.00,,,0.00,VWS V14.01,2013-05-19 11:00:00,
2013-05-19 06:05:00,63.2,63.2,28.88,South,179,2.0,7.0,100,0.00,,,0.00,VWS V14.01,2013-05-19 11:05:00,
2013-05-19 06:10:00,63.2,63.2,28.88,SE,140,3.0,5.0,100,0.00,,,0.00,VWS V14.01,2013-05-19 11:10:00,
2013-05-19 06:15:00,63.4,63.4,28.88,SSE,154,3.0,10.0,100,0.00,,,0.00,VWS V14.01,2013-05-19 11:15:00,
2013-05-19 06:20:00,63.5,63.5,28.87,South,169,6.0,8.0,100,0.00,,,0.00,VWS V14.01,2013-05-19 11:20:00,
2013-05-19 06:25:00,63.5,63.5,28.87,SSE,160,3.0,10.0,100,0.00,,,0.00,VWS V14.01,2013-05-19 11:25:00,
2013-05-19 06:30:00,63.6,63.6,28.88,SSE,153,3.0,8.0,100,0.00,,,0.00,VWS V14.01,2013-05-19 11:30:00,
2013-05-19 06:35:00,63.7,63.7,28.88,SE,133,5.0,9.0,100,0.00,,,0.00,VWS V14.01,2013-05-19 11:35:00,
2013-05-19 06:40:00,63.9,63.9,28.89,South,182,3.0,8.0,100,0.00,,,0.00,VWS V14.01,2013-05-19 11:40:00,
2013-05-19 06:45:00,64.0,63.7,28.88,SSE,148,5.0,13.0,99,0.00,,,0.00,VWS V14.01,2013-05-19 11:45:00,
2013-05-19 06:50:00,64.2,15.6,28.87,SSE,165,10.0,10.0,15,0.00,,,0.00,VWS V14.01,2013-05-19 11:50:00,
2013-05-19 06:55:00,64.3,64.3,28.87,South,188,2.0,10.0,100,0.00,,,0.00,VWS V14.01,2013-05-19 11:55:00,
2013-05-19 07:00:00,64.5,64.5,28.87,SSE,156,5.0,8.0,100,0.00,,,0.00,VWS V14.01,2013-05-19 12:00:00,
2013-05-19 07:05:00,64.6,64.6,28.87,SE,144,2.0,8.0,100,0.00,,,0.00,VWS V14.01,2013-05-19 12:05:00,
2013-05-19 07:10:00,64.7,64.7,28.86,SE,139,7.0,7.0,100,0.00,,,0.00,VWS V14.01,2013-05-19 12:10:00,
2013-05-19 07:15:00,64.8,64.8,28.86,SE,135,3.0,8.0,100,0.00,,,0.00,VWS V14.01,2013-05-19 12:15:00,
2013-05-19 07:20:00,65.1,65.1,28.85,ESE,117,4.0,7.0,100,0.00,,,0.00,VWS V14.01,2013-05-19 12:20:00,
2013-05-19 07:25:00,65.4,44.7,28.86,South,175,4.0,10.0,47,0.00,,,0.00,VWS V14.01,2013-05-19 12:25:00,
2013-05-19 07:30:00,66.0,66.0,28.85,South,175,3.0,8.0,100,0.00,,,0.00,VWS V14.01,2013-05-19 12:30:00,
2013-05-19 07:35:00,66.7,59.6,28.86,SSE,148,4.0,8.0,78,0.00,,,0.00,VWS V14.01,2013-05-19 12:35:00,
2013-05-19 07:40:00,67.0,67.0,28.86,SE,138,5.0,5.0,100,0.00,,,0.00,VWS V14.01,2013-05-19 12:40:00,
2013-05-19 07:45:00,67.5,67.5,28.86,SSW,201,0.0,8.0,100,0.00,,,0.00,VWS V14.01,2013-05-19 12:45:00,
2013-05-19 07:50:00,68.0,68.0,28.88,South,170,0.0,2.0,100,0.00,,,0.00,VWS V14.01,2013-05-19 12:50:00,
2013-05-19 07:55:00,68.3,68.3,28.87,SSE,161,0.0,7.0,100,0.00,,,0.00,VWS V14.01,2013-05-19 12:55:00,
2013-05-19 08:00:00,68.4,68.4,28.88,SSE,148,0.0,3.0,100,0.00,,,0.00,VWS V14.01,2013-05-19 13:00:00,
2013-05-19 08:05:00,68.5,68.5,28.88,SE,131,3.0,4.0,100,0.00,,,0.00,VWS V14.01,2013-05-19 13:05:00,
2013-05-19 08:10:00,68.5,68.5,28.88,SSE,161,2.0,3.0,100,0.00,,,0.00,VWS V14.01,2013-05-19 13:10:00,
2013-05-19 08:15:00,68.5,68.5,28.87,ESE,123,8.0,10.0,100,0.00,,,0.00,VWS V14.01,2013-05-19 13:15:00,
2013-05-19 08:20:00,68.5,68.5,28.87,South,191,0.0,6.0,100,0.00,,,0.00,VWS V14.01,2013-05-19 13:20:00,
2013-05-19 08:25:00,68.4,68.4,28.88,SSE,155,1.0,8.0,100,0.00,,,0.00,VWS V14.01,2013-05-19 13:25:00,
2013-05-19 08:30:00,68.4,68.4,28.88,South,173,3.0,6.0,100,0.00,,,0.00,VWS V14.01,2013-05-19 13:30:00,
2013-05-19 08:35:00,68.4,68.4,28.87,SSE,162,5.0,9.0,100,0.00,,,0.00,VWS V14.01,2013-05-19 13:35:00,
2013-05-19 08:40:00,68.5,68.5,28.87,South,172,7.0,13.0,100,0.00,,,0.00,VWS V14.01,2013-05-19 13:40:00,
2013-05-19 08:45:00,68.8,68.8,28.87,SSE,147,4.0,13.0,100,0.00,,,0.00,VWS V14.01,2013-05-19 13:45:00,
2013-05-19 08:50:00,69.0,69.0,28.87,SSE,163,3.0,3.0,100,0.00,,,0.00,VWS V14.01,2013-05-19 13:50:00,
2013-05-19 08:55:00,69.2,69.2,28.87,SE,142,6.0,11.0,100,0.00,,,0.00,VWS V14.01,2013-05-19 13:55:00,
2013-05-19 09:00:00,69.3,69.3,28.87,SSE,151,4.0,9.0,100,0.00,,,0.00,VWS V14.01,2013-05-19 14:00:00,
2013-05-19 09:05:00,69.5,69.5,28.87,SSE,160,2.0,10.0,100,0.00,,,0.00,VWS V14.01,2013-05-19 14:05:00,
2013-05-19 09:10:00,69.6,69.6,28.87,SSE,156,4.0,10.0,100,0.00,,,0.00,VWS V14.01,2013-05-19 14:10:00,
2013-05-19 09:15:00,69.8,68.9,28.87,SSE,161,4.0,11.0,97,0.00,,,0.00,VWS V14.01,2013-05-19 14:15:00,
2013-05-19 09:22:00,70.0,70.0,28.87,SE,130,2.0,7.0,100,0.00,,,0.00,VWS V14.01,2013-05-19 14:22:00,
2013-05-19 09:27:00,70.2,66.2,28.87,SSE,166,4.0,14.0,87,0.00,,,0.00,VWS V14.01,2013-05-19 14:27:00,
2013-05-19 09:32:00,70.5,53.1,28.86,SSE,161,6.0,12.0,54,0.00,,,0.00,VWS V14.01,2013-05-19 14:32:00,
2013-05-19 09:37:00,70.7,52.8,28.86,SSE,157,2.0,15.0,53,0.00,,BKN070,0.00,VWS V14.01,2013-05-19 14:37:00,
2013-05-19 09:42:00,70.9,70.9,28.85,SSE,151,5.0,12.0,100,0.00,,BKN070,0.00,VWS V14.01,2013-05-19 14:42:00,
2013-05-19 09:47:00,71.1,36.4,28.85,ESE,119,5.0,16.0,28,0.00,,BKN070,0.00,VWS V14.01,2013-05-19 14:47:00,
2013-05-19 09:52:00,71.3,37.4,28.85,SSE,162,4.0,11.0,29,0.00,,BKN070,0.00,VWS V14.01,2013-05-19 14:52:00,
2013-05-19 09:57:00,71.5,33.9,28.85,SE,146,2.0,19.0,25,0.00,,BKN070,0.00,VWS V14.01,2013-05-19 14:57:00,
2013-05-19 10:02:00,71.8,71.8,28.85,SE,146,6.0,13.0,100,0.00,,BKN070,0.00,VWS V14.01,2013-05-19 15:02:00,
2013-05-19 10:07:00,71.9,71.9,28.85,SE,128,13.0,17.0,100,0.00,,BKN070,0.00,VWS V14.01,2013-05-19 15:07:00,
2013-05-19 10:13:00,72.1,72.1,28.85,South,185,7.0,19.0,100,0.00,,BKN070,0.00,VWS V14.01,2013-05-19 15:13:00,
2013-05-19 10:18:00,72.2,25.0,28.84,SSE,150,15.0,19.0,17,0.00,,BKN070,0.00,VWS V14.01,2013-05-19 15:18:00,
2013-05-19 10:23:00,72.3,72.3,28.84,ESE,123,10.0,13.0,100,0.00,,BKN070,0.00,VWS V14.01,2013-05-19 15:23:00,
2013-05-19 10:28:00,72.3,72.3,28.83,SSE,160,7.0,21.0,100,0.00,,BKN070,0.00,VWS V14.01,2013-05-19 15:28:00,
2013-05-19 10:33:00,72.2,72.2,28.82,ESE,116,12.0,13.0,100,0.00,,BKN070,0.00,VWS V14.01,2013-05-19 15:33:00,
2013-05-19 10:38:00,71.9,71.9,28.80,ENE,60,3.0,13.0,100,0.00,,SCT090,0.00,VWS V14.01,2013-05-19 15:38:00,
2013-05-19 10:43:00,71.7,71.7,28.80,ESE,120,5.0,7.0,100,0.00,,SCT090,0.00,VWS V14.01,2013-05-19 15:43:00,
2013-05-19 10:48:00,71.4,47.1,28.78,ENE,59,0.0,7.0,42,0.00,,SCT090,0.00,VWS V14.01,2013-05-19 15:48:00,
2013-05-19 10:53:00,71.2,71.2,28.75,ESE,115,1.0,6.0,100,0.00,,SCT090,0.00,VWS V14.01,2013-05-19 15:53:00,
2013-05-19 10:58:00,70.8,70.8,28.73,NNE,27,4.0,9.0,100,0.00,,SCT090,0.00,VWS V14.01,2013-05-19 15:58:00,
2013-05-19 11:03:00,70.7,61.2,28.75,East,98,4.0,5.0,72,0.00,,SCT090,0.00,VWS V14.01,2013-05-19 16:03:00,
2013-05-19 11:08:00,70.8,55.8,28.76,ESE,117,5.0,14.0,59,0.00,,SCT090,0.00,VWS V14.01,2013-05-19 16:08:00,
2013-05-19 11:13:00,70.9,70.9,28.75,ESE,115,10.0,15.0,100,0.00,,SCT090,0.00,VWS V14.01,2013-05-19 16:13:00,
2013-05-19 11:18:00,71.1,71.1,28.75,SSE,162,3.0,15.0,100,0.00,,SCT090,0.00,VWS V14.01,2013-05-19 16:18:00,
2013-05-19 11:23:00,71.4,71.4,28.76,ESE,120,2.0,4.0,100,0.00,,SCT090,0.00,VWS V14.01,2013-05-19 16:23:00,
2013-05-19 11:28:00,71.6,36.8,28.76,SE,136,6.0,9.0,28,0.00,,SCT090,0.00,VWS V14.01,2013-05-19 16:28:00,
2013-05-19 11:33:00,71.9,71.9,28.77,SSE,154,1.0,6.0,100,0.00,,SCT090,0.00,VWS V14.01,2013-05-19 16:33:00,
2013-05-19 11:38:00,72.3,72.3,28.76,ESE,106,4.0,11.0,100,0.00,,SCT090,0.00,VWS V14.01,2013-05-19 16:38:00,
2013-05-19 11:43:00,72.7,66.9,28.76,SE,144,3.0,16.0,82,0.00,,BKN100,0.00,VWS V14.01,2013-05-19 16:43:00,
2013-05-19 11:48:00,73.1,73.1,28.76,SE,127,13.0,16.0,100,0.00,,BKN100,0.00,VWS V14.01,2013-05-19 16:48:00,
2013-05-19 11:53:00,73.6,73.6,28.76,South,182,2.0,15.0,100,0.00,,BKN100,0.00,VWS V14.01,2013-05-19 16:53:00,
2013-05-19 11:58:00,74.1,74.1,28.77,South,171,9.0,15.0,100,0.00,,BKN100,0.00,VWS V14.01,2013-05-19 16:58:00,
2013-05-19 12:03:00,74.3,74.3,28.76,SSE,166,7.0,23.0,100,0.00,,BKN100,0.00,VWS V14.01,2013-05-19 17:03:00,
2013-05-19 12:08:00,74.4,74.4,28.78,SSE,148,4.0,23.0,100,0.00,,BKN100,0.00,VWS V14.01,2013-05-19 17:08:00,
2013-05-19 12:13:00,75.0,75.0,28.78,ESE,119,9.0,19.0,100,0.00,,BKN100,0.00,VWS V14.01,2013-05-19 17:13:00,
2013-05-19 12:18:00,75.7,75.7,28.77,ENE,60,6.0,19.0,100,0.00,,BKN100,0.00,VWS V14.01,2013-05-19 17:18:00,
2013-05-19 12:23:00,76.3,76.3,28.78,SSW,192,8.0,25.0,100,0.00,,BKN100,0.00,VWS V14.01,2013-05-19 17:23:00,
2013-05-19 12:28:00,76.8,76.8,28.78,SSE,150,9.0,25.0,100,0.00,,BKN100,0.00,VWS V14.01,2013-05-19 17:28:00,
2013-05-19 12:33:00,77.4,77.4,28.77,SSE,168,6.0,14.0,100,0.00,,BKN100,0.00,VWS V14.01,2013-05-19 17:33:00,
2013-05-19 12:38:00,77.9,77.9,28.77,SSE,149,8.0,16.0,100,0.00,,BKN100,0.00,VWS V14.01,2013-05-19 17:38:00,
2013-05-19 12:43:00,78.4,78.4,28.76,SE,145,11.0,22.0,100,0.00,,SCT120,0.00,VWS V14.01,2013-05-19 17:43:00,
2013-05-19 12:48:00,78.8,78.8,28.76,SE,136,12.0,22.0,100,0.00,,SCT120,0.00,VWS V14.01,2013-05-19 17:48:00,
2013-05-19 12:53:00,79.2,79.2,28.76,SSE,153,10.0,18.0,100,0.00,,SCT120,0.00,VWS V14.01,2013-05-19 17:53:00,
2013-05-19 12:59:00,79.6,79.6,28.76,South,169,4.0,18.0,100,0.00,,SCT120,0.00,VWS V14.01,2013-05-19 17:59:00,
2013-05-19 13:04:00,79.9,79.9,28.77,South,183,4.0,19.0,100,0.00,,SCT120,0.00,VWS V14.01,2013-05-19 18:04:00,
2013-05-19 13:09:00,80.3,80.3,28.77,SW,231,7.0,19.0,100,0.00,,SCT120,0.00,VWS V14.01,2013-05-19 18:09:00,
2013-05-19 13:14:00,80.5,80.5,28.78,South,171,16.0,24.0,100,0.00,,SCT120,0.00,VWS V14.01,2013-05-19 18:14:00,
2013-05-19 13:19:00,80.7,80.7,28.78,South,177,4.0,24.0,100,0.00,,SCT120,0.00,VWS V14.01,2013-05-19 18:19:00,
2013-05-19 13:25:00,81.2,81.2,28.77,South,185,21.0,21.0,100,0.00,,SCT120,0.00,VWS V14.01,2013-05-19 18:25:00,
2013-05-19 13:31:00,81.5,81.5,28.79,South,181,4.0,12.0,100,0.00,,SCT120,0.00,VWS V14.01,2013-05-19 18:31:00,
2013-05-19 13:37:00,81.9,81.9,28.78,South,183,11.0,23.0,100,0.00,,SCT120,0.00,VWS V14.01,2013-05-19 18:37:00,
2013-05-19 13:42:00,82.3,82.3,28.77,SSE,167,7.0,27.0,100,0.00,,FEW110,0.00,VWS V14.01,2013-05-19 18:42:00,
2013-05-19 13:47:00,82.4,82.4,28.77,South,182,5.0,27.0,100,0.00,,FEW110,0.00,VWS V14.01,2013-05-19 18:47:00,
2013-05-19 13:52:00,82.6,82.6,28.76,ESE,115,5.0,18.0,100,0.00,,FEW110,0.00,VWS V14.01,2013-05-19 18:52:00,
2013-05-19 13:57:00,82.8,82.8,28.76,WSW,240,4.0,18.0,100,0.00,,FEW110,0.00,VWS V14.01,2013-05-19 18:57:00,
2013-05-19 14:02:00,83.1,83.1,28.76,East,84,6.0,14.0,100,0.00,,FEW110,0.00,VWS V14.01,2013-05-19 19:02:00,
2013-05-19 14:07:00,83.5,83.5,28.76,SSE,154,9.0,16.0,100,0.00,,FEW110,0.00,VWS V14.01,2013-05-19 19:07:00,
2013-05-19 14:12:00,83.9,83.9,28.76,South,186,10.0,18.0,100,0.00,,FEW110,0.00,VWS V14.01,2013-05-19 19:12:00,
2013-05-19 14:17:00,84.1,84.1,28.76,South,172,8.0,22.0,100,0.00,,FEW110,0.00,VWS V14.01,2013-05-19 19:17:00,
2013-05-19 14:22:00,84.2,84.2,28.76,SW,215,1.0,23.0,100,0.00,,FEW110,0.00,VWS V14.01,2013-05-19 19:22:00,
2013-05-19 14:27:00,84.3,84.3,28.76,SSE,168,4.0,28.0,100,0.00,,FEW110,0.00,VWS V14.01,2013-05-19 19:27:00,
2013-05-19 14:32:00,84.5,84.5,28.76,SE,146,6.0,17.0,100,0.00,,FEW110,0.00,VWS V14.01,2013-05-19 19:32:00,
2013-05-19 14:37:00,84.6,84.6,28.75,SE,133,11.0,18.0,100,0.00,,FEW110,0.00,VWS V14.01,2013-05-19 19:37:00,
2013-05-19 14:42:00,84.8,84.8,28.76,South,180,11.0,18.0,100,0.00,,FEW050,0.00,VWS V14.01,2013-05-19 19:42:00,
2013-05-19 14:47:00,84.9,84.9,28.76,SE,138,12.0,22.0,100,0.00,,FEW050,0.00,VWS V14.01,2013-05-19 19:47:00,
2013-05-19 14:52:00,84.9,84.9,28.76,SSE,163,14.0,19.0,100,0.00,,FEW050,0.00,VWS V14.01,2013-05-19 19:52:00,
2013-05-19 14:57:00,84.0,84.0,28.76,South,171,4.0,29.0,100,0.00,,FEW050,0.00,VWS V14.01,2013-05-19 19:57:00,
2013-05-19 15:02:00,82.8,82.8,28.76,SSE,159,16.0,29.0,100,0.00,,FEW050,0.00,VWS V14.01,2013-05-19 20:02:00,
2013-05-19 15:07:00,80.5,80.5,28.75,SSE,162,25.0,38.0,100,0.00,,FEW050,0.00,VWS V14.01,2013-05-19 20:07:00,
2013-05-19 15:12:00,77.4,77.4,28.75,SSE,159,11.0,24.0,100,0.05,,FEW050,0.05,VWS V14.01,2013-05-19 20:12:00,
2013-05-19 15:17:00,74.8,60.5,28.75,South,185,0.0,24.0,61,0.09,,FEW050,0.09,VWS V14.01,2013-05-19 20:17:00,
2013-05-19 15:22:00,73.6,73.6,28.74,South,180,5.0,7.0,100,0.10,,FEW050,0.10,VWS V14.01,2013-05-19 20:22:00,
2013-05-19 15:27:00,72.5,72.5,28.74,SSE,164,9.0,9.0,100,0.10,,FEW050,0.10,VWS V14.01,2013-05-19 20:27:00,
2013-05-19 15:32:00,71.6,67.2,28.73,South,174,2.0,11.0,86,0.10,,FEW050,0.10,VWS V14.01,2013-05-19 20:32:00,
2013-05-19 15:37:00,70.8,70.8,28.73,SE,138,8.0,11.0,100,0.10,,BKN095,0.10,VWS V14.01,2013-05-19 20:37:00,
2013-05-19 15:42:00,70.1,70.1,28.73,SE,127,8.0,15.0,100,0.10,,BKN095,0.10,VWS V14.01,2013-05-19 20:42:00,
2013-05-19 15:47:00,69.4,69.4,28.72,SE,132,5.0,23.0,100,0.10,,BKN095,0.10,VWS V14.01,2013-05-19 20:47:00,
2013-05-19 15:52:00,68.8,68.8,28.72,SSE,167,4.0,8.0,100,0.11,,BKN095,0.11,VWS V14.01,2013-05-19 20:52:00,
2013-05-19 15:57:00,68.5,36.7,28.68,NNE,23,7.0,8.0,31,0.12,,BKN095,0.12,VWS V14.01,2013-05-19 20:57:00,
2013-05-19 16:02:00,68.0,68.0,28.65,NNE,16,4.0,5.0,100,0.12,,BKN095,0.12,VWS V14.01,2013-05-19 21:02:00,
2013-05-19 16:07:00,68.2,68.2,28.66,NE,34,3.0,5.0,100,0.12,,BKN095,0.12,VWS V14.01,2013-05-19 21:07:00,
2013-05-19 16:12:00,68.5,68.5,28.67,South,181,2.0,5.0,100,0.11,,BKN095,0.12,VWS V14.01,2013-05-19 21:12:00,
2013-05-19 16:17:00,69.0,55.0,28.68,South,180,1.0,5.0,61,0.11,,BKN095,0.12,VWS V14.01,2013-05-19 21:17:00,
2013-05-19 16:22:00,69.4,69.4,28.68,SSE,163,3.0,5.0,100,0.02,,BKN095,0.12,VWS V14.01,2013-05-19 21:22:00,
2013-05-19 16:27:00,69.9,69.9,28.69,SE,139,6.0,9.0,100,0.02,,BKN095,0.12,VWS V14.01,2013-05-19 21:27:00,
2013-05-19 16:32:00,70.3,70.3,28.69,SSE,153,4.0,11.0,100,0.02,,BKN095,0.12,VWS V14.01,2013-05-19 21:32:00,
2013-05-19 16:37:00,70.7,70.7,28.69,SE,146,5.0,11.0,100,0.02,,BKN095,0.12,VWS V14.01,2013-05-19 21:37:00,
2013-05-19 16:42:00,71.1,71.1,28.68,SSE,157,3.0,3.0,100,0.02,,BKN095,0.12,VWS V14.01,2013-05-19 21:42:00,
2013-05-19 16:47:00,71.5,71.5,28.68,SSE,167,2.0,6.0,100,0.02,,-RA,0.12,VWS V14.01,2013-05-19 21:47:00,
2013-05-19 16:52:00,71.9,71.9,28.68,South,174,1.0,5.0,100,0.01,,-RA,0.12,VWS V14.01,2013-05-19 21:52:00,
2013-05-19 16:57:00,72.5,72.5,28.68,South,186,0.0,5.0,100,0.01,,-RA,0.12,VWS V14.01,2013-05-19 21:57:00,
2013-05-19 17:02:00,72.9,72.9,28.68,South,173,0.0,4.0,100,0.00,,-RA,0.12,VWS V14.01,2013-05-19 22:02:00,
2013-05-19 17:07:00,73.4,73.4,28.69,SSE,165,1.0,4.0,100,0.00,,-RA,0.12,VWS V14.01,2013-05-19 22:07:00,
2013-05-19 17:12:00,73.8,35.8,28.68,South,178,2.0,5.0,25,0.00,,-RA,0.12,VWS V14.01,2013-05-19 22:12:00,
2013-05-19 17:17:00,74.2,-19.5,28.68,South,189,2.0,7.0,2,0.00,,-RA,0.12,VWS V14.01,2013-05-19 22:17:00,
2013-05-19 17:22:00,74.5,74.5,28.68,South,188,6.0,8.0,100,0.00,,-RA,0.12,VWS V14.01,2013-05-19 22:22:00,
2013-05-19 17:27:00,74.8,74.8,28.69,SE,146,0.0,8.0,100,0.00,,-RA,0.12,VWS V14.01,2013-05-19 22:27:00,
2013-05-19 17:32:00,75.2,75.2,28.69,SSE,155,0.0,2.0,100,0.00,,-RA,0.12,VWS V14.01,2013-05-19 22:32:00,
2013-05-19 17:37:00,75.8,75.8,28.69,SSE,160,3.0,5.0,100,0.00,,FEW055,0.12,VWS V14.01,2013-05-19 22:37:00,
2013-05-19 17:42:00,76.4,76.4,28.69,SSW,192,1.0,8.0,100,0.00,,FEW055,0.12,VWS V14.01,2013-05-19 22:42:00,
2013-05-19 17:47:00,77.1,77.1,28.69,South,179,4.0,12.0,100,0.00,,FEW055,0.12,VWS V14.01,2013-05-19 22:47:00,
2013-05-19 17:52:00,77.6,77.6,28.69,SSE,160,0.0,7.0,100,0.00,,FEW055,0.00,VWS V14.01,2013-05-19 22:52:00,
2013-05-19 17:57:00,78.0,78.0,28.69,ESE,121,6.0,14.0,100,0.00,,FEW055,0.12,VWS V14.01,2013-05-19 22:57:00,
2013-05-19 18:02:00,78.5,78.5,28.68,South,170,1.0,12.0,100,0.00,,FEW055,0.12,VWS V14.01,2013-05-19 23:02:00,
2013-05-19 18:07:00,78.7,78.7,28.69,SE,142,4.0,12.0,100,0.00,,FEW055,0.12,VWS V14.01,2013-05-19 23:07:00,
2013-05-19 18:12:00,78.8,78.8,28.68,SE,146,0.0,9.0,100,0.00,,FEW055,0.12,VWS V14.01,2013-05-19 23:12:00,
2013-05-19 18:17:00,78.9,78.9,28.68,SE,140,8.0,12.0,100,0.00,,FEW055,0.12,VWS V14.01,2013-05-19 23:17:00,
2013-05-19 18:22:00,79.0,79.0,28.68,SSW,202,5.0,12.0,100,0.00,,FEW055,0.12,VWS V14.01,2013-05-19 23:22:00,
2013-05-19 18:27:00,79.2,79.2,28.68,ESE,113,5.0,16.0,100,0.00,,FEW055,0.12,VWS V14.01,2013-05-19 23:27:00,
2013-05-19 18:32:00,79.2,79.2,28.68,SE,134,6.0,12.0,100,0.00,,FEW055,0.12,VWS V14.01,2013-05-19 23:32:00,
2013-05-19 18:37:00,79.2,79.2,28.67,SSW,193,4.0,12.0,100,0.00,,FEW055,0.12,VWS V14.01,2013-05-19 23:37:00,
2013-05-19 18:42:00,79.1,79.1,28.67,SSE,167,9.0,15.0,100,0.00,,CLR,0.12,VWS V14.01,2013-05-19 23:42:00,
2013-05-19 18:47:00,78.9,78.9,28.67,SSE,152,3.0,15.0,100,0.00,,CLR,0.12,VWS V14.01,2013-05-19 23:47:00,
2013-05-19 18:52:00,78.8,78.8,28.67,East,98,4.0,9.0,100,0.00,,CLR,0.12,VWS V14.01,2013-05-19 23:52:00,
2013-05-19 18:57:00,78.7,78.7,28.66,SE,140,7.0,12.0,100,0.00,,CLR,0.12,VWS V14.01,2013-05-19 23:57:00,
2013-05-19 19:02:00,78.6,78.6,28.67,SE,131,10.0,14.0,100,0.00,,CLR,0.12,VWS V14.01,2013-05-20 00:02:00,
2013-05-19 19:07:00,78.6,78.6,28.67,ESE,113,7.0,14.0,100,0.00,,CLR,0.12,VWS V14.01,2013-05-20 00:07:00,
2013-05-19 19:12:00,78.5,78.5,28.67,East,98,3.0,8.0,100,0.00,,CLR,0.12,VWS V14.01,2013-05-20 00:12:00,
2013-05-19 19:17:00,78.3,78.3,28.67,East,89,4.0,11.0,100,0.00,,CLR,0.12,VWS V14.01,2013-05-20 00:17:00,
2013-05-19 19:22:00,78.1,78.1,28.67,SE,127,2.0,8.0,100,0.00,,CLR,0.12,VWS V14.01,2013-05-20 00:22:00,
2013-05-19 19:27:00,77.9,77.9,28.67,SE,132,4.0,12.0,100,0.00,,CLR,0.12,VWS V14.01,2013-05-20 00:27:00,
2013-05-19 19:32:00,77.7,77.7,28.67,ESE,113,5.0,9.0,100,0.00,,CLR,0.12,VWS V14.01,2013-05-20 00:32:00,
2013-05-19 19:37:00,77.5,77.5,28.67,SE,135,5.0,12.0,100,0.00,,CLR,0.12,VWS V14.01,2013-05-20 00:37:00,
2013-05-19 19:42:00,77.5,77.5,28.67,East,95,6.0,15.0,100,0.00,,CLR,0.12,VWS V14.01,2013-05-20 00:42:00,
2013-05-19 19:47:00,77.4,77.4,28.67,ESE,112,4.0,15.0,100,0.00,,CLR,0.12,VWS V14.01,2013-05-20 00:47:00,
2013-05-19 19:52:00,77.3,77.3,28.67,SE,133,4.0,13.0,100,0.00,,CLR,0.12,VWS V14.01,2013-05-20 00:52:00,
2013-05-19 19:57:00,77.2,77.2,28.67,SE,141,3.0,13.0,100,0.00,,CLR,0.12,VWS V14.01,2013-05-20 00:57:00,
2013-05-19 20:02:00,77.0,77.0,28.67,SSE,154,2.0,18.0,100,0.00,,CLR,0.12,VWS V14.01,2013-05-20 01:02:00,
2013-05-19 20:07:00,76.9,76.9,28.67,SE,134,6.0,18.0,100,0.00,,CLR,0.12,VWS V14.01,2013-05-20 01:07:00,
2013-05-19 20:12:00,76.6,76.6,28.67,SE,127,5.0,15.0,100,0.00,,CLR,0.12,VWS V14.01,2013-05-20 01:12:00,
2013-05-19 20:17:00,76.5,76.5,28.67,SE,145,7.0,15.0,100,0.00,,CLR,0.12,VWS V14.01,2013-05-20 01:17:00,
2013-05-19 20:22:00,76.3,76.3,28.67,ESE,104,3.0,8.0,100,0.00,,CLR,0.12,VWS V14.01,2013-05-20 01:22:00,
2013-05-19 20:27:00,76.1,76.1,28.67,SSE,151,4.0,16.0,100,0.00,,CLR,0.12,VWS V14.01,2013-05-20 01:27:00,
2013-05-19 20:32:00,76.0,76.0,28.66,ESE,119,10.0,15.0,100,0.00,,CLR,0.12,VWS V14.01,2013-05-20 01:32:00,
2013-05-19 20:37:00,75.9,75.9,28.66,SE,124,3.0,16.0,100,0.00,,FEW110,0.12,VWS V14.01,2013-05-20 01:37:00,
2013-05-19 20:42:00,75.8,75.8,28.65,SE,133,9.0,13.0,100,0.00,,FEW110,0.12,VWS V14.01,2013-05-20 01:42:00,
2013-05-19 20:47:00,75.7,75.7,28.65,ESE,120,5.0,14.0,100,0.00,,FEW110,0.12,VWS V14.01,2013-05-20 01:47:00,
2013-05-19 20:52:00,75.7,75.7,28.65,South,182,3.0,9.0,100,0.00,,FEW110,0.12,VWS V14.01,2013-05-20 01:52:00,
2013-05-19 20:57:00,75.6,75.6,28.65,SE,128,9.0,22.0,100,0.00,,FEW110,0.12,VWS V14.01,2013-05-20 01:57:00,
2013-05-19 21:02:00,75.6,75.6,28.65,SE,144,5.0,16.0,100,0.00,,FEW110,0.12,VWS V14.01,2013-05-20 02:02:00,
2013-05-19 21:07:00,75.5,75.5,28.64,SSE,153,2.0,16.0,100,0.00,,FEW110,0.12,VWS V14.01,2013-05-20 02:07:00,
2013-05-19 21:12:00,75.4,75.4,28.64,SSE,148,8.0,14.0,100,0.00,,FEW110,0.12,VWS V14.01,2013-05-20 02:12:00,
2013-05-19 21:17:00,75.3,75.3,28.64,SE,139,1.0,14.0,100,0.00,,FEW110,0.12,VWS V14.01,2013-05-20 02:17:00,
2013-05-19 21:22:00,75.2,75.2,28.64,South,171,4.0,14.0,100,0.00,,FEW110,0.12,VWS V14.01,2013-05-20 02:22:00,
2013-05-19 21:27:00,75.1,75.1,28.64,ESE,122,10.0,17.0,100,0.00,,FEW110,0.12,VWS V14.01,2013-05-20 02:27:00,
2013-05-19 21:32:00,75.1,75.1,28.64,SE,140,4.0,10.0,100,0.00,,FEW110,0.12,VWS V14.01,2013-05-20 02:32:00,
2013-05-19 21:37:00,75.0,75.0,28.64,ESE,103,1.0,15.0,100,0.00,,CLR,0.12,VWS V14.01,2013-05-20 02:37:00,
2013-05-19 21:42:00,74.9,74.9,28.63,ESE,117,5.0,19.0,100,0.00,,CLR,0.12,VWS V14.01,2013-05-20 02:42:00,
2013-05-19 21:47:00,75.0,75.0,28.62,ESE,106,3.0,24.0,100,0.00,,CLR,0.12,VWS V14.01,2013-05-20 02:47:00,
2013-05-19 21:52:00,75.0,75.0,28.62,ESE,118,4.0,19.0,100,0.00,,CLR,0.12,VWS V14.01,2013-05-20 02:52:00,
2013-05-19 21:57:00,74.9,74.9,28.62,South,169,7.0,19.0,100,0.00,,CLR,0.12,VWS V14.01,2013-05-20 02:57:00,
2013-05-19 22:02:00,74.9,74.9,28.61,SE,140,3.0,17.0,100,0.00,,CLR,0.12,VWS V14.01,2013-05-20 03:02:00,
2013-05-19 22:07:00,74.7,74.7,28.60,SSE,153,8.0,17.0,100,0.00,,CLR,0.12,VWS V14.01,2013-05-20 03:07:00,
2013-05-19 22:12:00,74.5,74.5,28.61,SSE,147,13.0,16.0,100,0.00,,CLR,0.12,VWS V14.01,2013-05-20 03:12:00,
2013-05-19 22:17:00,74.3,74.3,28.60,SSE,155,7.0,20.0,100,0.00,,CLR,0.12,VWS V14.01,2013-05-20 03:17:00,
2013-05-19 22:22:00,74.1,74.1,28.59,South,180,6.0,14.0,100,0.00,,CLR,0.12,VWS V14.01,2013-05-20 03:22:00,
2013-05-19 22:27:00,73.8,73.8,28.59,ESE,122,12.0,20.0,100,0.00,,CLR,0.12,VWS V14.01,2013-05-20 03:27:00,
2013-05-19 22:32:00,73.6,73.6,28.59,SSE,148,9.0,20.0,100,0.00,,CLR,0.12,VWS V14.01,2013-05-20 03:32:00,
2013-05-19 22:37:00,73.3,73.3,28.59,SE,135,7.0,25.0,100,0.00,,FEW055,0.12,VWS V14.01,2013-05-20 03:37:00,
2013-05-19 22:42:00,72.9,72.9,28.59,SSE,151,8.0,14.0,100,0.00,,FEW055,0.12,VWS V14.01,2013-05-20 03:42:00,
2013-05-19 22:47:00,72.5,72.5,28.59,SE,143,10.0,18.0,100,0.00,,FEW055,0.00,VWS V14.01,2013-05-20 03:47:00,
2013-05-19 22:52:00,72.1,72.1,28.58,SE,125,12.0,16.0,100,0.00,,FEW055,0.12,VWS V14.01,2013-05-20 03:52:00,
2013-05-19 22:57:00,71.8,71.8,28.58,East,91,2.0,16.0,100,0.00,,FEW055,0.12,VWS V14.01,2013-05-20 03:57:00,
2013-05-19 23:01:00,71.6,71.6,28.60,SE,140,6.0,10.0,100,0.00,,FEW055,0.12,VWS V14.01,2013-05-20 04:01:00,
2013-05-19 23:06:00,71.2,71.2,28.62,SSW,207,1.0,10.0,100,0.00,,FEW055,0.12,VWS V14.01,2013-05-20 04:06:00,
2013-05-19 23:11:00,70.9,70.9,28.63,SW,214,3.0,7.0,100,0.00,,FEW055,0.12,VWS V14.01,2013-05-20 04:11:00,
2013-05-19 23:16:00,70.8,70.8,28.64,SE,135,7.0,8.0,100,0.00,,FEW055,0.12,VWS V14.01,2013-05-20 04:16:00,
2013-05-19 23:21:00,70.6,70.6,28.63,South,182,7.0,9.0,100,0.00,,FEW055,0.12,VWS V14.01,2013-05-20 04:21:00,
2013-05-19 23:26:00,70.5,70.5,28.64,South,176,1.0,10.0,100,0.00,,FEW055,0.12,VWS V14.01,2013-05-20 04:26:00,
2013-05-19 23:31:00,70.3,70.3,28.64,SSE,165,1.0,13.0,100,0.00,,FEW055,0.12,VWS V14.01,2013-05-20 04:31:00,
2013-05-19 23:36:00,70.1,70.1,28.63,East,99,6.0,17.0,100,0.00,,CLR,0.12,VWS V14.01,2013-05-20 04:36:00,
2013-05-19 23:41:00,69.9,69.9,28.63,South,190,5.0,10.0,100,0.00,,CLR,0.12,VWS V14.01,2013-05-20 04:41:00,
2013-05-19 23:46:00,69.8,69.8,28.62,East,90,5.0,16.0,100,0.00,,CLR,0.12,VWS V14.01,2013-05-20 04:46:00,
2013-05-19 23:51:00,69.5,69.5,28.62,SSE,160,15.0,15.0,100,0.00,,CLR,0.12,VWS V14.01,2013-05-20 04:51:00,
2013-05-19 23:56:00,69.3,69.3,28.63,South,169,8.0,15.0,100,0.00,,CLR,0.12,VWS V14.01,2013-05-20 04:56:00,